Location: Dimond District
(37.8033°N, 122.2128°W)
Time: 18:54:58
(UTC+00:00)

Cosmos 2278 Rocket - Pass Details

Date: 03 August 2024
Orbit: 841 x 844 km, 71.0° (Epoch: 07 September)

Event Time Altitude Azimuth Distance (km) Brightness Sun altitude
Rises 12:06:59 0° 341° (NNW) 3,404 5.6 -12.6°
Reaches altitude 10° 12:09:30 10° 346° (NNW) 2,466 4.9 -12.2°
Maximum altitude 12:15:04 57° 65° (ENE) 984 3.0 -11.2°
Drops below altitude 10° 12:20:36 10° 144° (SE) 2,454 4.7 -10.3°
Sets 12:23:04 0° 148° (SSE) 3,385 5.4 -9.9°
